Other Public Products
Issued by NWS Grand Forks, ND

Home | Current Version | Previous Version | Graphics & Text | Print | Product List | Glossary On
Versions: 1 2 3 4 5 6 7 8 9 10 11 12 13 14 15 16 17 18 19 20 21 22 23 24 25 26 27 28 29 30 31 32 33 34 35 36 37 38 39 40 41 42 43 44 45 46 47 48 49 50
000
FPUS83 KFGF 301110
OPUFGF
PRAIRIE TO PINES WEATHER ROUNDUP
NATIONAL WEATHER SERVICE EASTERN NORTH DAKOTA/GRAND FORKS ND
600 AM CDT TUE SEP 30 2014

 **SATELLITE DATA USED TO AUGMENT SKY COVER AT AUTOMATED STATIONS**
 *****  WEATHER ACROSS EASTERN NORTH DAKOTA  *****

CITY           SKY/WX    TMP DP  RH WIND       PRES   REMARKS
GRAND FORKS    PTCLDY    43  41  93 SE7       29.98F
GRAND FORKS AF PTCLDY    40  40  99 SE8       29.97F
GRAND CITY NWS   N/A     41 N/A N/A SE9         N/A
BUXTON         NOT AVBL
DEVILS LAKE    CLOUDY    48  39  71 SE18      29.89F
FARGO          CLEAR     45  41  86 SE12      29.97F
WAHPETON ARPT  CLOUDY    45  41  87 SE15      29.97F
$$

 *****  WEATHER ACROSS CENTRAL AND WESTERN NORTH DAKOTA  *****

CITY           SKY/WX    TMP DP  RH WIND       PRES   REMARKS
JAMESTOWN      CLOUDY    47  45  93 SE10      29.87F
BISMARCK       CLOUDY    54  50  86 E14       29.77F
MINOT          CLOUDY    50  47  89 SE14G21   29.80F
MINOT AFB      CLOUDY    50  50  99 E13       29.79F
GARRISON         N/A     52  50  93 SE10      29.78F
WILLISTON      RAIN      53  51  93 SE5       29.75F
DICKINSON      FOG       52  51  97 SE14      29.71F VSB 3/4
HETTINGER      CLOUDY    52  51  97 E13       29.68F
$$

 *****  OTHER OBSERVATIONS NORTHEAST NORTH DAKOTA  *****

CITY           SKY/WX    TMP DP  RH WIND       PRES   REMARKS
WALHALLA       CLOUDY    43  43 100 SE9       29.98F
LANGDON        CLOUDY    45  45 100 SE15      29.93F
CAVALIER       FAIR      41  39  93 SE3       29.98F
GRAFTON        FAIR      39  39 100 E8        29.98F
CANDO          CLOUDY    48  46  93 SE14G23   29.90F
FORT TOTTEN    NOT AVBL
ROLLA          CLOUDY    46  46 100 S12G17    29.90F
RUGBY          CLOUDY    48  46  93 SE14G20   29.86F
 ***** THE ABOVE OBSERVATIONS ARE NON NWS ARE NOT QUALITY
        CONTROLLED AND MAY MIS-REPORT RAIN FOR SNOW...
$$

 *****  OTHER OBSERVATIONS SOUTHEAST NORTH DAKOTA *****

CITY           SKY/WX    TMP DP  RH WIND       PRES   REMARKS
COOPERSTOWN    NOT AVBL
VALLEY CITY    CLOUDY    45  45 100 SE17      29.91F
OAKES            N/A     46  46 100 E13       29.88F
GWINNER        CLOUDY    46  46 100 SE18      29.92F
SHEYENNE NWR     N/A     44  42  93 SE13      29.95
BUFFALO        NOT AVBL
WYNDMERE         N/A     45  45 100 SE12        N/A
 ***** THE ABOVE OBSERVATIONS ARE NON NWS ARE NOT QUALITY
       CONTROLLED AND MAY MIS-REPORT RAIN FOR SNOW...
$$

  *****  WEATHER ACROSS NORTHERN MINNESOTA  *****

CITY           SKY/WX    TMP DP  RH WIND       PRES   REMARKS
FLAG ISLAND    CLOUDY    43  43 100 SE8G16    30.08S
WARROAD        CLOUDY    43  39  87 SE10      30.08S
ROSEAU         CLOUDY    45  39  81 E7G17     30.05F
HALLOCK        PTCLDY    41  39  93 E7        30.00F
THF RVR FALLS  CLEAR     39  37  93 E10       30.01F
HALSTAD          N/A     42  41  95 SE7         N/A
FOSSTON        MOCLDY    39  39 100 SE7       30.02S
BAUDETTE       CLOUDY    43  39  86 SE9       30.09F
WASKISH        CLOUDY    43  43 100 CALM      30.08F
CROOKSTON      PTCLDY    39  39 100 SE6       30.00F
$$
  *****  WEATHER ACROSS CENTRAL AND WEST MINNESOTA  *****

CITY           SKY/WX    TMP DP  RH WIND       PRES   REMARKS
BEMIDJI        CLOUDY    43  40  91 SE14      30.05F
PARK RAPIDS    CLOUDY    41  39  93 E12       30.04F
WADENA         CLOUDY    41  39  93 SE9       30.03F
DETROIT LAKES  CLOUDY    43  41  93 SE13      30.00F
MOORHEAD       NOT AVBL
FERGUS FALLS   CLOUDY    43  41  93 SE14      30.00F
ELBOW LAKE     CLOUDY    43  42  97 SE14G21   29.99F
MORRIS MN      PTCLDY    45  43  93 SE15      29.98F
STAPLES        CLOUDY    39  39 100 E6        30.05F
WHEATON        CLOUDY    43  39  87 E13G18    29.99F
$$
  *****  WEATHER ELSEWHERE ACROSS MINNESOTA  *****

CITY           SKY/WX    TMP DP  RH WIND       PRES   REMARKS
DULUTH         CLOUDY    42  38  85 E12       30.13S
INTRNTL FALLS  CLOUDY    42  39  89 SE7       30.12S
ELY            CLOUDY    39  37  93 SE6       30.14F
CLOQUET        CLOUDY    41  39  93 E8        30.12F
BRAINERD       CLOUDY    42  40  92 SE9       30.08F
HIBBING        CLOUDY    42  38  85 SE13      30.12F
ALEXANDRIA     CLOUDY    41  40  96 SE16G23   30.03F FOG
SAINT CLOUD    CLOUDY    43  40  89 E6        30.07F
MINNEAPOLIS    CLOUDY    43  39  86 E10       30.08F
$$

  *****  WEATHER ACROSS SOUTH DAKOTA  *****

CITY           SKY/WX    TMP DP  RH WIND       PRES   REMARKS
SIOUX FALLS    MOCLDY    52  49  89 E14       29.89F
BROOKINGS      NOT AVBL
WATERTOWN      CLOUDY    48  46  93 E10G20    29.89F
HURON          MOCLDY    54  50  86 SE13G22   29.80F
SISSETON         N/A     46  44  93 SE13G20   29.93F
ABERDEEN       CLOUDY    54  49  83 E13       29.82F
MITCHELL       MOCLDY    55  51  86 SE20G25   29.80F
PIERRE         LGT RAIN  58  56  93 SE25G33   29.65F
MOBRIDGE       CLOUDY    55  50  83 SE16      29.71F
RAPID CITY     LGT RAIN  53  52  96 N21G28    29.53F
$$

  *****  SOME WEATHER IN NEARBY STATES *****

CITY           SKY/WX    TMP DP  RH WIND       PRES   REMARKS
GLASGOW MT     CLOUDY    51  49  92 SE12      29.68F
GREAT FALLS MT MOCLDY    52  45  77 SW16      29.69S
CHEYENNE WY    CLOUDY    50  37  61 W17       29.80R
SCOTTSBLUFF NE LGT RAIN  51  49  92 W13       29.68S
OMAHA NE       CLOUDY    64  58  80 SE6       29.90R
DES MOINES IA  CLOUDY    58  55  90 E9        29.96F
DAVENPORT IA   NOT AVBL
CHICAGO IL     DRIZZLE   48  46  93 N9        30.05R FOG
EAU CLAIRE WI  CLOUDY    42  36  79 E10       30.11F
LA CROSSE WI   CLOUDY    48  41  76 E7        30.10S
$$

  *****  SOME NATIONAL WEATHER *****

CITY           SKY/WX    TMP DP  RH WIND       PRES   REMARKS
LA GUARDIA NY  CLOUDY    68  64  88 CALM      29.94R FOG
RALEIGH NC     FOG       62  61  96 CALM      29.93S VSB 1/16
ATLANTA GA     CLOUDY    66  63  90 E6        29.96R
NEW ORLEANS LA PTCLDY    75  71  87 NE5       29.87S
OKLAHOMA CITY  PTCLDY    65  59  81 S7        29.91S
ALBUQUERQUE NM CLEAR     50  36  58 CALM      30.04F
SALT LAKE CITY CLOUDY    54  47  77 CALM      29.97F
LOS ANGELES CA CLEAR     63  60  90 E5        29.85F
BOISE ID       CLOUDY    52  50  93 N5        29.93R
SEATTLE WA     CLOUDY    55  51  86 S6        30.03S
$$

*** WEATHER ACROSS MANITOBA...SASKATCHEWAN AND ONTARIO ***
                ***ONTARIO***

CITY           SKY/WX    TMP DP  RH WIND       PRES   REMARKS
GERALDTON      CLEAR     27  27 100 CALM      30.19S FOG
THUNDER BAY    CLEAR     30  30 100 W2        30.19R
SIOUX LOOKOUT  CLOUDY    37  36  93 S5        30.14F
TORONTO        LGT RAIN  61  59  94 E5        29.87S
BIG TROUT LK   PTCLDY    37  36  93 W9        30.08S
PICKLE LAKE    DRIZZLE   36  34  93 SW6       30.13  FOG
DRYDEN         CLOUDY    39  37  93 S8        30.12
KENORA         CLOUDY    43  41  93 SE9       30.10S
$$
                *** MANITOBA***

CITY           SKY/WX    TMP DP  RH WIND       PRES   REMARKS
BRANDON        CLOUDY    46  45  93 E9        29.90F
DAUPHIN        CLOUDY    43  41  93 VRB2      29.89F
ISLAND LAKE    CLOUDY    46  39  76 S8        30.02S
PILOT MOUND      N/A     43  41  93 SE9         N/A
THE PAS        MOCLDY    41  41 100 SE9       29.82F
THOMPSON       CLEAR     36  36 100 S5        29.90F
WINNIPEG       PTCLDY    43  41  93 SE12      30.01F
LYNN LAKE      CLEAR     39  39 100 S9        29.76F
CHURCHILL      CLOUDY    39  37  93 E13G18    29.97R
GILLAM         PTCLDY    36  36 100 S7        29.95S
$$
                ***SASKATCHEWAN***

CITY           SKY/WX    TMP DP  RH WIND       PRES   REMARKS
ESTEVAN        SHOWER    50  50 100 SE12      29.77F FOG
KINDERSLEY     MOCLDY    46  45  93 SE8       29.56S
LLOYDMINSTER   CLOUDY    48  45  87 S6        29.56S
PRINCE ALBERT  CLOUDY    52  46  82 S15       29.68F
REGINA         LGT RAIN  50  48  93 SE17      29.73F



USA.gov is the U.S. government's official web portal to all federal, state and local government web resources and services.